Weather Roundup
Issued by NWS Springfield, MO

Home | Current Version | Previous Version | Text Only | Print | Product List | Glossary On
Versions: 1 2 3 4 5 6 7 8 9 10 11 12 13 14 15 16 17 18 19 20 21 22 23 24 25 26 27 28 29 30 31 32 33 34 35 36 37 38 39 40 41 42 43 44 45 46 47 48 49 50
000
NZUS99 KSGF 201959
HRRSGF

HOURLY WEATHER
NATIONAL WEATHER SERVICE SPRINGFIELD MO
300 PM CDT WED AUG 20 2014

......SGF CWA......

CITY           SKY/WX    TMP DP  RH WIND       PRES   REMARKS
SPRINGFIELD    PTSUNNY   94  65  38 SW17      29.96F HX  96
JOPLIN         MOSUNNY   91  66  43 S17       29.95F HX  93
WEST PLAINS    SUNNY     93  68  43 SW8       30.01F HX  97
ROLLA          MOSUNNY   91  69  48 VRB5      29.96F HX  96
OSAGE BEACH    MOSUNNY   93  68  43 SW6       29.93F HX  97
BRANSON        PTSUNNY   97  64  34 SW10G17   30.00F HX  99

......SURROUNDING SGF CWA......

CITY           SKY/WX    TMP DP  RH WIND       PRES   REMARKS
CHANUTE        SUNNY     93  70  46 S21G28    29.89F HX  99
PARSONS        SUNNY     94  70  45 S14G22    29.91F HX 100
COFFEYVILLE    SUNNY     92  70  48 S17G24    29.90F HX  97
EMPORIA        MOSUNNY   93  68  43 S21G28    29.85F HX  97
SILOAM SPRINGS SUNNY     88  66  48 SW12G21   30.01S HX  90
HARRISON AR    SUNNY     90  67  46 S8G16     30.02F HX  93
NEAR YELLVILLE   N/A     95  64  36 SW14G21   29.99F HX  97

......KANSAS AND MISSOURI......

CITY           SKY/WX    TMP DP  RH WIND       PRES   REMARKS
KANSAS CTY INT PTSUNNY   89  71  55 S12       29.87F HX  95
DOWNTOWN KC    PTSUNNY   92  69  47 S10G21    29.86F HX  97
COLUMBIA       MOSUNNY   91  73  55 SW6       29.94F HX  99
SEDALIA        PTSUNNY   91  72  53 S9        29.93F HX  98
ST JOSEPH      MOSUNNY   89  74  60 S10       29.85F HX  98
ST LOUIS       CLOUDY    86  72  62 SE15      29.96F HX  92
SPIRIT OF STL  CLOUDY    88  73  61 CALM      29.94F HX  95
KIRKSVILLE     MOSUNNY   85  73  67 SE12      29.94F HX  91
WICHITA        MOSUNNY   96  68  39 S20G29    29.82F HX 101
TOPEKA         MOSUNNY   95  69  42 S17       29.84F HX 100
OLATHE         PTSUNNY   90  69  50 S10       29.88F HX  94

......TENNESSEE......

CITY           SKY/WX    TMP DP  RH WIND       PRES   REMARKS
MEMPHIS        MOSUNNY   94  69  44 SW8       30.02F HX  99
NASHVILLE      PTSUNNY   93  73  52 W6G16     29.97S HX 102

......ARKANSAS.......

CITY           SKY/WX    TMP DP  RH WIND       PRES   REMARKS
FAYETTEVILLE   SUNNY     90  66  45 S17       30.01S HX  92
FT SMITH       SUNNY     92  67  43 S9        29.98F HX  95
LITTLE ROCK    SUNNY     92  66  42 S14       30.01F HX  94

......OKLAHOMA.......

CITY           SKY/WX    TMP DP  RH WIND       PRES   REMARKS
TULSA          MOSUNNY   93  62  35 S22G29    29.90F HX  93
PONCA CITY     SUNNY     95  69  42 S10G22    29.86F HX 100
MCALESTER      SUNNY     89  72  56 S9G17     29.97F HX  96
OKLAHOMA CITY  SUNNY     94  65  38 S18G24    29.90F HX  96

......IOWA............

CITY           SKY/WX    TMP DP  RH WIND       PRES   REMARKS
DES MOINES     CLOUDY    81  69  67 S10       29.86F
QUAD CITIES    CLOUDY    77  70  79 SW8       29.89R

......ILLINOIS........

CITY           SKY/WX    TMP DP  RH WIND       PRES   REMARKS
QUINCY         CLOUDY    81  71  71 SE8       29.94F
CHICAGO        PTSUNNY   84  63  49 SW14      29.88F




USA.gov is the U.S. government's official web portal to all federal, state and local government web resources and services.